| time (UTC) | temp F | wind direction | speed MPH | gust MPH | rain 1hr in | rain 24hr in | rain mn in | humidity % | barometer mb |
| 20260507102248 | 43 | 207 | 0.0 | 2.0 | 0.00 | 0.02 | 0.02 | 86 | 1011.4 |
| 20260507093550 | 43 | 201 | 0.0 | 2.0 | 0.00 | 0.02 | 0.02 | 86 | 1011.4 |
| 20260507090939 | 43 | 204 | 0.0 | 2.0 | 0.00 | 0.02 | 0.02 | 86 | 1011.5 |
| 20260507084926 | 43 | 135 | 0.0 | 0.0 | 0.00 | 0.02 | 0.02 | 86 | 1011.5 |
| 20260507081952 | 43 | 135 | 0.0 | 0.0 | 0.00 | 0.02 | 0.02 | 86 | 1011.4 |
| 20260507074915 | 43 | 135 | 0.0 | 0.0 | 0.00 | 0.02 | 0.02 | 86 | 1011.3 |
| 20260507061636 | 43 | 135 | 0.0 | 0.0 | 0.00 | 0.02 | 0.02 | 85 | 1011.3 |
| 20260507053524 | 43 | 135 | 0.0 | 0.0 | 0.00 | 0.02 | 0.02 | 84 | 1011.1 |
| 20260507050932 | 43 | 135 | 0.0 | 1.0 | 0.00 | 0.02 | 0.02 | 84 | 1011.1 |
| 20260507043525 | 43 | 135 | 0.0 | 1.0 | 0.00 | 0.02 | 0.02 | 83 | 1010.9 |
| 20260507035526 | 44 | 135 | 0.0 | 0.0 | 0.00 | 0.02 | 0.02 | 82 | 1010.7 |
| 20260507033745 | 44 | 135 | 0.0 | 0.0 | 0.00 | 0.02 | 0.02 | 82 | 1010.6 |
| 20260507031141 | 44 | 135 | 0.0 | 0.0 | 0.00 | 0.02 | 0.02 | 81 | 1010.6 |
| 20260507024918 | 44 | 135 | 0.0 | 0.0 | 0.00 | 0.02 | 0.02 | 80 | 1010.5 |
| 20260507022214 | 45 | 135 | 0.0 | 0.0 | 0.00 | 0.02 | 0.02 | 80 | 1010.4 |
| 20260507015617 | 45 | 135 | 0.0 | 0.0 | 0.00 | 0.02 | 0.02 | 79 | 1010.4 |
| 20260507012726 | 45 | 135 | 0.0 | 0.0 | 0.00 | 0.02 | 0.02 | 78 | 1010.2 |
| 20260507005541 | 45 | 135 | 0.0 | 0.0 | 0.00 | 0.02 | 0.02 | 78 | 1010.1 |
| 20260507002937 | 45 | 135 | 0.0 | 0.0 | 0.00 | 0.02 | 0.02 | 77 | 1010.1 |
| 20260507000611 | 45 | 135 | 0.0 | 0.0 | 0.00 | 0.02 | 0.02 | 76 | 1010.1 |
| 20260506232823 | 45 | 135 | 0.0 | 0.0 | 0.00 | 0.02 | 0.02 | 76 | 1010.0 |
| 20260506225200 | 45 | 135 | 0.0 | 0.0 | 0.00 | 0.02 | 0.02 | 75 | 1010.2 |
| 20260506221319 | 46 | 135 | 0.0 | 0.0 | 0.00 | 0.02 | 0.02 | 75 | 1010.3 |
| 20260506213900 | 46 | 135 | 0.0 | 0.0 | 0.00 | 0.02 | 0.02 | 75 | 1010.5 |
| 20260506210218 | 46 | 135 | 0.0 | 0.0 | 0.00 | 0.02 | 0.02 | 74 | 1010.2 |
| 20260506203724 | 46 | 135 | 0.0 | 0.0 | 0.00 | 0.02 | 0.02 | 73 | 1009.8 |
| 20260506195251 | 46 | 135 | 0.0 | 0.0 | 0.00 | 0.02 | 0.02 | 71 | 1009.6 |
| 20260506190810 | 46 | 135 | 0.0 | 0.0 | 0.00 | 0.02 | 0.02 | 71 | 1009.5 |
| 20260506185022 | 47 | 135 | 0.0 | 0.0 | 0.00 | 0.02 | 0.02 | 72 | 1009.4 |
| 20260506181728 | 47 | 135 | 0.0 | 0.0 | 0.00 | 0.02 | 0.02 | 71 | 1009.2 |
| 20260506174430 | 47 | 135 | 0.0 | 0.0 | 0.00 | 0.02 | 0.02 | 69 | 1009.2 |
| 20260506170914 | 47 | 135 | 0.0 | 0.0 | 0.00 | 0.02 | 0.02 | 70 | 1009.2 |
| 20260506165028 | 47 | 135 | 0.0 | 0.0 | 0.00 | 0.02 | 0.02 | 69 | 1009.3 |
| 20260506160931 | 48 | 135 | 0.0 | 0.0 | 0.00 | 0.02 | 0.02 | 68 | 1009.6 |
| 20260506154604 | 48 | 135 | 0.0 | 0.0 | 0.00 | 0.02 | 0.02 | 67 | 1009.6 |
| 20260506150944 | 48 | 135 | 0.0 | 5.0 | 0.00 | 0.02 | 0.02 | 66 | 1009.4 |
| 20260506144529 | 48 | 132 | 0.0 | 6.0 | 0.00 | 0.02 | 0.02 | 65 | 1009.0 |
| 20260506142025 | 48 | 77 | 4.0 | 6.0 | 0.00 | 0.02 | 0.02 | 63 | 1007.8 |
| 20260506135106 | 48 | 78 | 2.0 | 3.0 | 0.00 | 0.02 | 0.02 | 63 | 1008.7 |
| 20260506131931 | 48 | 350 | 0.0 | 2.0 | 0.00 | 0.02 | 0.02 | 62 | 1009.0 |
| 20260506124415 | 48 | 312 | 0.0 | 5.0 | 0.00 | 0.02 | 0.02 | 63 | 1009.0 |
| 20260506121127 | 48 | 314 | 0.0 | 6.0 | 0.01 | 0.02 | 0.02 | 62 | 1009.1 |
| 20260506113619 | 48 | 313 | 2.0 | 6.0 | 0.01 | 0.02 | 0.02 | 62 | 1008.8 |
| 20260506110432 | 48 | 69 | 0.0 | 4.0 | 0.01 | 0.02 | 0.02 | 63 | 1007.2 |